Regional Weather Roundup
Issued by NWS Bismarck, ND

Home | Current Version | Previous Version | Text Only | Print | Product List | Glossary On
Versions: 1 2 3 4 5 6 7 8 9 10 11 12 13 14 15 16 17 18 19 20 21 22 23 24 25 26 27 28 29 30 31 32 33 34 35 36 37 38 39 40 41 42 43 44 45 46 47 48 49 50
171
ASUS43 KBIS 300210
RWRBIS

NWR BROADCAST TEXT
NATIONAL WEATHER SERVICE BISMARCK ND
900 PM CDT MON AUG 29 2016

NOTE: "FAIR" INDICATES FEW OR NO CLOUDS BELOW 12,000 FEET WITH NO
SIGNIFICANT WEATHER AND/OR OBSTRUCTIONS TO VISIBILITY.


CITY           SKY/WX    TMP DP  RH WIND       PRES   REMARKS
WILLISTON      CLEAR     73  38  27 E7        30.21S
MINOT          CLEAR     65  46  50 NE7       30.22S
MINOT AFB      CLEAR     71  45  39 NE3       30.21S
BISMARCK       CLEAR     65  50  58 NE6       30.23R
DICKINSON      CLEAR     62  44  51 E8        30.23R
GARRISON         N/A     65  47  52 CALM      30.23R
HETTINGER ARPT CLEAR     68  50  52 E8        30.25R
JAMESTOWN      CLEAR     63  57  81 CALM      30.21R
CARRINGTON     FAIR      64  52  63 N5        30.25R
HAZEN          FAIR      59  46  63 CALM      30.25R HAZE
LINTON         FAIR      66  57  72 NE7       30.24R
MANDAN         FAIR      68  46  45 NE7       30.24S
OAKES            N/A    N/A N/A N/A MISG        N/A
RUGBY          FAIR      63  50  63 W3        30.23R
STANLEY        FAIR      68  43  40 CALM      30.26S
WATFORD CITY   FAIR      68  45  42 SE9       30.23R
$$

CITY           SKY/WX    TMP DP  RH WIND       PRES   REMARKS
GRAND FORKS    CLEAR     62  54  74 NW6       30.17R
GRAND FORKS AF CLEAR     62  53  73 NW6       30.18S
DEVILS LAKE    CLEAR     65  51  60 N5        30.23R HAZE
FARGO          CLEAR     68  59  73 N8        30.15R
CAVALIER       FAIR      59  54  82 W3        30.19R
GRAFTON        FAIR      63  54  72 NW6       30.20R
GWINNER        FAIR      66  63  88 N8        30.19R
LANGDON        FAIR      57  46  67 NW7       30.22S HAZE
ROLLA          FAIR      55  52  88 SW5       30.24R
$$

CITY           SKY/WX    TMP DP  RH WIND       PRES   REMARKS
ABERDEEN       PTCLDY    73  62  68 N8        30.18R
MOBRIDGE       CLOUDY    74  51  44 NE10      30.18R
BUFFALO          N/A     70  46  42 E14       30.17S
RAPID CITY     CLOUDY    70  60  70 NE9       30.23R
GLASGOW        CLEAR     75  46  35 E9        30.13S
SIDNEY         CLEAR     72  48  42 NE7       30.19R
WOLF POINT     CLEAR     76  45  33 E7        30.16S
GLENDIVE       CLEAR     76  47  35 E10       30.19R
MILES CITY     CLEAR     82  45  27 E7        30.15R
BAKER          CLEAR     71  44  37 SE10      30.23S
$$

CITY           SKY/WX    TMP DP  RH WIND       PRES   REMARKS
BILLINGS       CLOUDY    79  50  36 E6        30.14S
GREAT FALLS    CLOUDY    79  41  25 E13       30.08F
REGINA         MOCLDY    64  45  48 NE6       30.22S
ESTEVAN        PTCLDY    63  52  67 E3        30.23R
$$





USA.gov is the U.S. government's official web portal to all federal, state and local government web resources and services.